Rbgn^[z[y[W
メイン
   新天体発見情報
     Comet C/2021 K2 (MASTER)
投稿するにはまず登録を

フラット表示 前のトピック | 次のトピック
投稿者 スレッド
佐藤裕久
投稿日時: 2021-6-17 17:14
モデレータ
登録日: 2005-6-12
居住地: 日本
投稿: 2585
オンライン
Comet C/2021 K2 (MASTER)

5月23.0日UT、南アフリカ天文台(SAAO)にある"Mobile Astronomical System of the Telescope-
Robots" (MASTER)の自動検出システムのダブル0.40-m f/2.5 反射望遠鏡で得たフィルターなし
のサーベイ画像から小惑星状天体が発見された。V. Lipunov (モスクワ国立大学)の指導の下で
検出。
小惑星センターのNEOCP webpage (後にPCCP webpage)に公表後、E. Guido (Castellammare di 
Stabia, イタリア、6月2.4 日UT, フィルターなし120秒露出35枚のスタック, "Telescope Live" 
の0.61-m f/6.5 アストログラフ, El Sauce, チリ, 遠隔操作:光度18.7-19.1等のこじんまりし
た約15"のコマがp.a. 180°に向かって伸びて見えた)や佐藤英貴氏(東京都文京区, 6月5.6日, 
60秒露出10枚のスタック, 0.51-m f/6.8 アストログラフ, Siding Spring, NSW, オーストラリア, 
遠隔操作: 強く集光した12"のコマが見えるが尾はない。6".5.の円形範囲で測定した光度は18.1
等であった)らCCD位置観測者によって彗星状と観測された。

彗星機能の報告は次の通り:

OC   Date        Reporter           Coma    Tail    PA          Exposures
K95  2021-05-22  V. Lipunov         6"
Y00  2021-06-02  C. Jacques         8"                           20x30s
X02  2021-06-02  E. Guido          15"                           35x120s
G39  2021-06-04  E. Bryssinck      18"                           15x120s
Q62  2021-06-05  H. Sato           12"                           10x60s
L81  2021-06-07  N. Paul           12"      23"    124           21x60s

発見位置は次のとおり、

     2021 UT             R.A. (2000) Decl.       Mag.
     May  10.09454   20 48 02.15   -50 49 47.0   19.1
          10.10402   20 48 01.68   -50 49 47.7   19.1
          18.09655   20 42 33.46   -50 57 54.3   19.1
          18.10117   20 42 33.22   -50 57 54.7   19.1
          18.98978   20 41 51.27   -50 58 48.8   19.1
          19.00263   20 41 50.65   -50 58 47.7   19.1
          22.97803   20 38 27.74   -51 02 44.5   18.7
          23.06267   20 38 23.05   -51 02 47.0   18.7
          23.11941   20 38 19.97   -51 02 52.0   19.0

MPCの楕円軌道要素、位置推算表は次のとおり、

Orbital elements:
    C/2021 K2 (MASTER)                                                          
Epoch 2021 Aug. 14.0 TT = JDT 2459440.5                                         
T 2021 Aug. 30.43465 TT                                 Rudenko                 
q   5.4672932            (2000.0)            P               Q                  
z  +0.0028158      Peri.  342.26423     +0.25846342     -0.10710991             
 +/-0.0015925      Node   282.33050     -0.72359202     -0.67990141             
e   0.9846055      Incl.  100.66244     -0.64000879     +0.72543886             
From 48 observations 2021 May 10-June 8, mean residual 0".5.                    
                                                                                
    C/2021 K2 (MASTER)                                                          
Epoch 2020 Dec. 17.0 TT = JDT 2459200.5                                         
T 2021 Aug. 30.12311 TT                                 Rudenko                 
q   5.4677703            (2000.0)            P               Q                  
z  +0.0029512      Peri.  342.22508     +0.25848498     -0.10715391             
 +/-0.0015925      Node   282.32366     -0.72314838     -0.68040633             
e   0.9838633      Incl.  100.67375     -0.64050131     +0.72495880             
From 48 observations 2021 May 10-June 8, mean residual 0".5.                    
                                                                                
Ephemeris:
Date    TT    R. A. (2000) Decl.     Delta      r    Elong.  Phase   m1
2021 05 10    20 48 05.4 -50 49 41   5.1561  5.5284   106.5    10.1  19.0
...
2021 05 25    20 36 35.7 -51 04 33   4.9341  5.5133   120.2     9.1  18.9
...
2021 06 02    20 28 15.5 -51 10 04   4.8301  5.5061   127.5     8.4  18.8
...
2021 06 08    20 21 02.3 -51 11 24   4.7608  5.5011   132.8     7.8  18.8
2021 06 09    20 19 45.5 -51 11 18   4.7500  5.5003   133.7     7.7  18.8
2021 06 10    20 18 27.5 -51 11 06   4.7395  5.4995   134.5     7.6  18.8
...
2021 06 16    20 10 14.9 -51 07 30   4.6821  5.4949   139.6     6.9  18.8
...
2021 06 24    19 58 23.3 -50 55 02   4.6215  5.4894   145.5     6.0  18.7
...
2021 07 09    19 34 35.5 -50 02 53   4.5621  5.4807   152.0     5.0  18.7

(MPEC 2021-L89、CBET 4975)

フラット表示 前のトピック | 次のトピック

題名 投稿者 日時
 » Comet C/2021 K2 (MASTER) 佐藤裕久 2021-6-17 17:14

投稿するにはまず登録を
 
© 1999 Tsutomu Seki.